Location: ???????
(55.3754°N, 39.3545°E)
Time: 22:38:38
(UTC+00:00)

Cosmos 2251 Rocket - Pass Details

Date: 14 April 2026
Orbit: 760 x 788 km, 74.0° (Epoch: 13 May)

Event Time Altitude Azimuth Distance (km) Brightness Sun altitude
Rises 21:11:19 0° 331° (NNW) 3,269 7.8 -24.9°
Reaches altitude 10° 21:13:42 10° 329° (NNW) 2,341 6.8 -24.9°
Maximum altitude 21:19:00 72° 247° (WSW) 824 3.5 -25.0°
Enters shadow 21:19:20 70° 216° (SW) 835 3.4 -25.0°
